DLH9LL EDDF-LIRF

Flight info

Callsign DLH9LL
Flight time N/A
Altitude 41000
Route CINDY3L CINDY Z74 LAMPU DCT NOMBO Y161 RIDAR DCT KONIN DCT BERAS DCT LIKDA DCT BAKOR DCT VESAL DCT GAVRA DCT RITEB
Aircraft A343/H-SDE2E3FGHIJ4J5M1RWXY/LB1D1

Departure

Time 2026-04-15 13:42
Airport Frankfurt Main Airport (EDDF)

Arrival

Time N/A
Airport Rome–Fiumicino Leonardo da Vinci International Airport (LIRF)
Time Latitude Longitude Altitude Speed Heading
2026-04-15 13:19 50.04651 8.56825 350 ft 0 kts 296°
2026-04-15 13:27 50.04648 8.56834 350 ft 2 kts 293°
2026-04-15 13:27 50.04643 8.56858 380 ft 2 kts 289°
2026-04-15 13:28 50.04639 8.56883 360 ft 2 kts 271°
2026-04-15 13:28 50.04640 8.56908 356 ft 2 kts 242°
2026-04-15 13:28 50.04649 8.56929 360 ft 2 kts 214°
2026-04-15 13:28 50.04661 8.56943 360 ft 1 kts 200°
2026-04-15 13:29 50.04664 8.56945 360 ft 0 kts 200°
2026-04-15 13:31 50.04664 8.56944 360 ft 0 kts 200°
2026-04-15 13:31 50.04642 8.56932 360 ft 8 kts 200°
2026-04-15 13:31 50.04581 8.56898 356 ft 10 kts 197°
2026-04-15 13:32 50.04508 8.56872 352 ft 12 kts 192°
2026-04-15 13:32 50.04439 8.56843 358 ft 10 kts 193°
2026-04-15 13:32 50.04363 8.56821 356 ft 12 kts 190°
2026-04-15 13:32 50.04275 8.56799 358 ft 11 kts 193°
2026-04-15 13:33 50.04249 8.56786 357 ft 0 kts 201°
2026-04-15 13:33 50.04244 8.56779 357 ft 5 kts 215°
2026-04-15 13:33 50.04230 8.56720 358 ft 10 kts 251°
2026-04-15 13:33 50.04189 8.56527 360 ft 27 kts 250°
2026-04-15 13:34 50.04116 8.56237 357 ft 29 kts 248°
2026-04-15 13:34 50.04046 8.55944 357 ft 29 kts 250°
2026-04-15 13:34 50.03975 8.55642 357 ft 30 kts 250°
2026-04-15 13:34 50.03905 8.55351 358 ft 30 kts 249°
2026-04-15 13:35 50.03833 8.55044 357 ft 30 kts 249°
2026-04-15 13:35 50.03760 8.54746 360 ft 29 kts 249°
2026-04-15 13:35 50.03704 8.54509 357 ft 22 kts 250°
2026-04-15 13:35 50.03651 8.54284 353 ft 23 kts 250°
2026-04-15 13:36 50.03598 8.54061 354 ft 17 kts 249°
2026-04-15 13:36 50.03577 8.53972 360 ft 7 kts 249°
2026-04-15 13:36 50.03555 8.53883 354 ft 12 kts 250°
2026-04-15 13:36 50.03522 8.53745 355 ft 14 kts 249°
2026-04-15 13:37 50.03485 8.53591 355 ft 16 kts 250°
2026-04-15 13:37 50.03446 8.53426 360 ft 17 kts 250°
2026-04-15 13:37 50.03402 8.53244 360 ft 19 kts 249°
2026-04-15 13:37 50.03355 8.53050 358 ft 20 kts 250°
2026-04-15 13:38 50.03322 8.52906 356 ft 1 kts 250°
2026-04-15 13:38 50.03315 8.52879 358 ft 5 kts 250°
2026-04-15 13:38 50.03295 8.52792 358 ft 11 kts 249°
2026-04-15 13:38 50.03290 8.52772 360 ft 0 kts 249°
2026-04-15 13:39 50.03283 8.52744 357 ft 13 kts 249°
2026-04-15 13:39 50.03257 8.52631 360 ft 8 kts 239°
2026-04-15 13:39 50.03212 8.52592 357 ft 7 kts 191°
2026-04-15 13:40 50.03200 8.52594 357 ft 0 kts 178°
2026-04-15 13:41 50.03199 8.52594 357 ft 0 kts 178°
2026-04-15 13:41 50.03190 8.52595 355 ft 3 kts 178°
2026-04-15 13:41 50.02996 8.52602 354 ft 62 kts 179°
2026-04-15 13:41 50.02338 8.52604 352 ft 124 kts 180°
2026-04-15 13:42 50.01303 8.52613 353 ft 171 kts 179°
2026-04-15 13:42 50.00093 8.52628 997 ft 169 kts 179°
2026-04-15 13:42 49.98916 8.52642 1765 ft 173 kts 178°
2026-04-15 13:42 49.97653 8.52703 2283 ft 189 kts 174°
2026-04-15 13:43 49.96346 8.53642 2825 ft 208 kts 134°
2026-04-15 13:43 49.95575 8.55408 3646 ft 214 kts 119°
2026-04-15 13:43 49.94850 8.57501 4686 ft 219 kts 118°
2026-04-15 13:43 49.94215 8.59669 5657 ft 226 kts 108°
2026-04-15 13:44 49.93947 8.62163 6386 ft 247 kts 96°
2026-04-15 13:44 49.93841 8.64999 7082 ft 265 kts 94°
2026-04-15 13:44 49.93629 8.67818 7984 ft 270 kts 106°
2026-04-15 13:44 49.92814 8.70341 8889 ft 273 kts 132°
2026-04-15 13:45 49.91316 8.72346 9862 ft 278 kts 146°
2026-04-15 13:45 49.89706 8.74097 10538 ft 292 kts 146°
2026-04-15 13:45 49.89162 8.74744 10674 ft 300 kts 142°
2026-04-15 13:47 49.79819 8.99256 15833 ft 370 kts 120°
2026-04-15 13:47 49.78551 9.02735 16562 ft 375 kts 120°
2026-04-15 13:47 49.77409 9.05865 17220 ft 379 kts 120°
2026-04-15 13:48 49.76229 9.09546 17995 ft 384 kts 111°
2026-04-15 13:48 49.75463 9.13513 18700 ft 389 kts 105°
2026-04-15 13:48 49.74644 9.17514 19295 ft 393 kts 114°
2026-04-15 13:48 49.73285 9.21188 19925 ft 396 kts 127°
2026-04-15 13:49 49.71644 9.24490 20406 ft 400 kts 130°
2026-04-15 13:49 49.69858 9.27708 21018 ft 404 kts 133°
2026-04-15 13:49 49.67961 9.30967 21536 ft 411 kts 133°
2026-04-15 13:49 49.66037 9.34235 22170 ft 414 kts 133°
2026-04-15 13:50 49.64096 9.37546 22782 ft 417 kts 133°
2026-04-15 13:50 49.62011 9.40689 23357 ft 421 kts 141°
2026-04-15 13:50 49.59650 9.43363 23895 ft 424 kts 147°
2026-04-15 13:50 49.57967 9.45039 24195 ft 426 kts 149°
2026-04-15 13:51 49.55428 9.47436 24641 ft 430 kts 150°
2026-04-15 13:51 49.52828 9.49802 25076 ft 434 kts 150°
2026-04-15 13:51 49.50237 9.52130 25491 ft 438 kts 150°
2026-04-15 13:51 49.47591 9.54505 25938 ft 442 kts 150°
2026-04-15 13:52 49.44918 9.56910 26332 ft 447 kts 150°
2026-04-15 13:52 49.42231 9.59338 26751 ft 450 kts 150°
2026-04-15 13:52 49.39519 9.61794 27163 ft 454 kts 150°
2026-04-15 13:52 49.36793 9.64266 27555 ft 458 kts 149°
2026-04-15 13:53 49.34120 9.67075 27942 ft 461 kts 141°
2026-04-15 13:53 49.31740 9.70287 28337 ft 464 kts 136°
2026-04-15 13:53 49.29395 9.73717 28715 ft 467 kts 135°
2026-04-15 13:53 49.27044 9.77284 29098 ft 471 kts 134°
2026-04-15 13:54 49.24726 9.80852 29481 ft 474 kts 133°
2026-04-15 13:54 49.22400 9.84442 29811 ft 478 kts 133°
2026-04-15 13:54 49.20081 9.88005 30148 ft 481 kts 133°
2026-04-15 13:54 49.17677 9.91682 30486 ft 484 kts 133°
2026-04-15 13:55 49.15290 9.95314 30795 ft 486 kts 134°
2026-04-15 13:55 49.12876 9.98973 31095 ft 489 kts 134°
2026-04-15 13:55 49.10451 10.02639 31400 ft 491 kts 134°
2026-04-15 13:55 49.08014 10.06317 31659 ft 494 kts 133°
2026-04-15 13:56 49.05573 10.09992 31950 ft 496 kts 133°
2026-04-15 13:56 49.03091 10.13621 32271 ft 498 kts 135°
2026-04-15 13:56 49.00564 10.17188 32674 ft 497 kts 135°
2026-04-15 13:56 48.97971 10.20797 33041 ft 498 kts 135°
2026-04-15 13:57 48.95449 10.24302 33414 ft 498 kts 135°
2026-04-15 13:57 48.92861 10.27912 33805 ft 498 kts 135°
2026-04-15 13:57 48.90335 10.31453 34192 ft 497 kts 134°
2026-04-15 13:57 48.87853 10.34941 34506 ft 497 kts 134°
2026-04-15 13:58 48.85331 10.38490 34853 ft 495 kts 134°
2026-04-15 13:58 48.82831 10.42004 35190 ft 494 kts 134°
2026-04-15 13:58 48.80337 10.45658 35520 ft 492 kts 131°
2026-04-15 13:58 48.77971 10.49413 35839 ft 491 kts 129°
2026-04-15 13:59 48.75659 10.53209 36164 ft 490 kts 129°
2026-04-15 13:59 48.73356 10.57013 36494 ft 489 kts 129°
2026-04-15 13:59 48.71053 10.60795 36800 ft 488 kts 129°
2026-04-15 13:59 48.68742 10.64545 37099 ft 488 kts 129°
2026-04-15 14:00 48.66454 10.68214 37383 ft 487 kts 130°
2026-04-15 14:00 48.64121 10.71935 37685 ft 486 kts 130°
2026-04-15 14:00 48.61783 10.75648 37967 ft 486 kts 130°
2026-04-15 14:00 48.59270 10.79173 38227 ft 489 kts 139°
2026-04-15 14:01 48.53463 10.84605 38820 ft 491 kts 149°
2026-04-15 14:01 48.50439 10.87014 39075 ft 491 kts 150°
2026-04-15 14:01 48.47408 10.89354 39310 ft 490 kts 151°
2026-04-15 14:02 48.44371 10.91675 39523 ft 489 kts 151°
2026-04-15 14:02 48.41338 10.93995 39733 ft 488 kts 151°
2026-04-15 14:02 48.38370 10.96274 39917 ft 488 kts 151°
2026-04-15 14:02 48.35301 10.98642 40117 ft 487 kts 151°
2026-04-15 14:03 48.32298 11.00964 40329 ft 487 kts 151°
2026-04-15 14:03 48.29284 11.03297 40511 ft 486 kts 151°
2026-04-15 14:03 48.26277 11.05624 40704 ft 486 kts 151°
2026-04-15 14:03 48.23278 11.07942 40886 ft 485 kts 151°
2026-04-15 14:04 48.20277 11.10258 41059 ft 485 kts 151°
2026-04-15 14:04 48.17276 11.12572 41189 ft 486 kts 151°
2026-04-15 14:04 48.14260 11.14893 41206 ft 489 kts 151°
2026-04-15 14:05 48.08167 11.19572 41193 ft 493 kts 151°
2026-04-15 14:05 48.02086 11.24226 41189 ft 489 kts 151°
2026-04-15 14:06 47.96037 11.28844 41186 ft 488 kts 151°
2026-04-15 14:06 47.89993 11.33448 41183 ft 488 kts 151°
2026-04-15 14:07 47.83947 11.38052 41185 ft 488 kts 150°
2026-04-15 14:07 47.77985 11.42876 41182 ft 487 kts 149°
2026-04-15 14:08 47.72077 11.47765 41177 ft 486 kts 149°
2026-04-15 14:08 47.66204 11.52575 41179 ft 485 kts 149°
2026-04-15 14:09 47.60251 11.57402 41168 ft 485 kts 149°
2026-04-15 14:09 47.54352 11.62163 41160 ft 485 kts 149°
2026-04-15 14:10 47.48393 11.66960 41155 ft 485 kts 149°
2026-04-15 14:10 47.42462 11.71723 41153 ft 485 kts 150°
2026-04-15 14:11 47.36316 11.75659 41145 ft 487 kts 165°
2026-04-15 14:11 47.29588 11.76687 41145 ft 488 kts 180°
2026-04-15 14:12 47.22785 11.76381 41138 ft 490 kts 183°
2026-04-15 14:12 47.15979 11.75916 41131 ft 490 kts 182°
2026-04-15 14:13 47.09167 11.75492 41134 ft 490 kts 182°
2026-04-15 14:13 47.02347 11.75112 41131 ft 491 kts 182°
2026-04-15 14:14 46.95525 11.74744 41126 ft 491 kts 182°
2026-04-15 14:14 46.88684 11.74372 41124 ft 492 kts 182°
2026-04-15 14:15 46.81838 11.73998 41124 ft 492 kts 182°
2026-04-15 14:15 46.75001 11.73626 41132 ft 492 kts 182°
2026-04-15 14:16 46.68151 11.73254 41130 ft 492 kts 182°
2026-04-15 14:16 46.61303 11.72884 41134 ft 493 kts 182°
2026-04-15 14:17 46.54448 11.72514 41128 ft 493 kts 182°
2026-04-15 14:17 46.47577 11.72124 41123 ft 493 kts 182°
2026-04-15 14:18 46.40723 11.71737 41133 ft 493 kts 182°
2026-04-15 14:18 46.33860 11.71576 41147 ft 493 kts 178°
2026-04-15 14:19 46.26997 11.71986 41150 ft 494 kts 177°
2026-04-15 14:19 46.20145 11.72417 41156 ft 494 kts 178°
2026-04-15 14:20 46.13274 11.72758 41154 ft 494 kts 178°
2026-04-15 14:20 46.06411 11.73054 41151 ft 494 kts 178°
2026-04-15 14:21 45.99531 11.73342 41157 ft 494 kts 178°
2026-04-15 14:21 45.92663 11.73632 41155 ft 494 kts 178°
2026-04-15 14:22 45.85797 11.73924 41149 ft 494 kts 178°
2026-04-15 14:22 45.78915 11.74217 41146 ft 494 kts 178°
2026-04-15 14:23 45.72088 11.74507 41145 ft 494 kts 178°
2026-04-15 14:23 45.65206 11.74798 41138 ft 494 kts 178°
2026-04-15 14:24 45.58326 11.75089 41136 ft 495 kts 178°
2026-04-15 14:24 45.51458 11.75378 41133 ft 494 kts 178°
2026-04-15 14:25 45.44597 11.75666 41130 ft 492 kts 178°
2026-04-15 14:25 45.37761 11.75952 41129 ft 492 kts 178°
2026-04-15 14:26 45.30925 11.76238 41130 ft 492 kts 178°
2026-04-15 14:26 45.24080 11.76524 41136 ft 492 kts 178°
2026-04-15 14:27 45.17241 11.76808 41141 ft 492 kts 178°
2026-04-15 14:27 45.10401 11.77090 41148 ft 491 kts 178°
2026-04-15 14:28 45.03836 11.77362 41154 ft 491 kts 178°
2026-04-15 14:28 44.97032 11.77642 41157 ft 491 kts 178°
2026-04-15 14:29 44.90307 11.77920 41157 ft 491 kts 178°
2026-04-15 14:29 44.83368 11.78205 41154 ft 491 kts 178°
2026-04-15 14:30 44.76525 11.78486 41165 ft 492 kts 178°
2026-04-15 14:30 44.70846 11.78719 41159 ft 492 kts 178°
2026-04-15 14:31 44.63980 11.79000 41166 ft 499 kts 178°
2026-04-15 14:31 44.56916 11.79289 41164 ft 507 kts 178°
2026-04-15 14:32 44.49841 11.79576 41159 ft 509 kts 178°
2026-04-15 14:32 44.42771 11.79862 41159 ft 508 kts 178°
2026-04-15 14:33 44.35713 11.80147 41164 ft 507 kts 178°
2026-04-15 14:33 44.28672 11.80432 41143 ft 507 kts 178°
2026-04-15 14:34 44.21621 11.80715 41142 ft 507 kts 178°
2026-04-15 14:34 44.14559 11.80999 41137 ft 507 kts 178°
2026-04-15 14:35 44.07513 11.81281 41133 ft 507 kts 178°
2026-04-15 14:35 44.00464 11.81563 40983 ft 505 kts 178°
2026-04-15 14:35 43.96973 11.81702 40617 ft 501 kts 178°
2026-04-15 14:36 43.93487 11.81840 40125 ft 499 kts 178°
2026-04-15 14:36 43.90010 11.81979 39556 ft 500 kts 178°
2026-04-15 14:36 43.86523 11.82118 39013 ft 501 kts 177°
2026-04-15 14:36 43.83045 11.82256 38288 ft 499 kts 177°
2026-04-15 14:37 43.79627 11.82395 37550 ft 483 kts 176°
2026-04-15 14:37 43.76357 11.82981 37012 ft 464 kts 166°
2026-04-15 14:37 43.73221 11.83915 36495 ft 462 kts 166°
2026-04-15 14:37 43.70089 11.84895 35969 ft 463 kts 166°
2026-04-15 14:38 43.66958 11.85886 35402 ft 464 kts 166°
2026-04-15 14:38 43.63785 11.86894 34785 ft 467 kts 166°
2026-04-15 14:38 43.60608 11.87903 34193 ft 469 kts 166°
2026-04-15 14:38 43.57409 11.88920 33422 ft 472 kts 166°
2026-04-15 14:39 43.54232 11.89928 32783 ft 470 kts 166°
2026-04-15 14:39 43.51041 11.90941 32052 ft 470 kts 166°
2026-04-15 14:39 43.47851 11.91952 31448 ft 466 kts 166°
2026-04-15 14:39 43.44717 11.92944 30964 ft 460 kts 166°
2026-04-15 14:40 43.41632 11.93921 30370 ft 455 kts 166°
2026-04-15 14:40 43.38537 11.94900 29616 ft 454 kts 165°
2026-04-15 14:40 43.35488 11.95864 28950 ft 450 kts 166°
2026-04-15 14:40 43.32448 11.96823 28425 ft 443 kts 166°
2026-04-15 14:41 43.29467 11.97762 27889 ft 437 kts 166°
2026-04-15 14:41 43.26524 11.98688 27364 ft 432 kts 166°
2026-04-15 14:41 43.23606 11.99604 26837 ft 427 kts 165°
2026-04-15 14:41 43.20722 12.00509 26323 ft 422 kts 165°
2026-04-15 14:42 43.17876 12.01404 25808 ft 418 kts 164°
2026-04-15 14:42 43.15057 12.02289 25291 ft 415 kts 164°
2026-04-15 14:42 43.12258 12.03167 24776 ft 412 kts 165°
2026-04-15 14:42 43.09474 12.04039 24255 ft 409 kts 164°
2026-04-15 14:43 43.06706 12.04903 23745 ft 406 kts 164°
2026-04-15 14:43 43.03956 12.05763 23177 ft 404 kts 165°
2026-04-15 14:43 43.01246 12.06610 22653 ft 399 kts 165°
2026-04-15 14:43 42.98536 12.07455 22157 ft 395 kts 164°
2026-04-15 14:44 42.95863 12.08288 21666 ft 392 kts 164°
2026-04-15 14:44 42.93218 12.09112 21142 ft 389 kts 164°
2026-04-15 14:44 42.90585 12.09932 20667 ft 387 kts 163°
2026-04-15 14:44 42.87970 12.10744 20178 ft 384 kts 163°
2026-04-15 14:45 42.85382 12.11572 19713 ft 381 kts 163°
2026-04-15 14:45 42.82832 12.12365 19541 ft 369 kts 164°
2026-04-15 14:45 42.80360 12.13121 19399 ft 358 kts 164°
2026-04-15 14:45 42.77972 12.13852 19279 ft 347 kts 164°
2026-04-15 14:46 42.75663 12.14562 19150 ft 337 kts 164°
2026-04-15 14:46 42.73410 12.15257 19001 ft 328 kts 164°
2026-04-15 14:46 42.71196 12.15949 18684 ft 327 kts 163°
2026-04-15 14:46 42.69079 12.17004 18326 ft 322 kts 150°
2026-04-15 14:47 42.67133 12.18489 17961 ft 320 kts 147°
2026-04-15 14:47 42.65222 12.20035 17612 ft 319 kts 147°
2026-04-15 14:47 42.63322 12.21571 17287 ft 316 kts 147°
2026-04-15 14:47 42.61456 12.23073 16932 ft 316 kts 147°
2026-04-15 14:48 42.59549 12.24603 16581 ft 314 kts 146°
2026-04-15 14:48 42.57677 12.26101 16300 ft 311 kts 146°
2026-04-15 14:48 42.55815 12.27569 16047 ft 309 kts 149°
2026-04-15 14:48 42.53945 12.29005 15789 ft 309 kts 149°
2026-04-15 14:49 42.52162 12.30386 15558 ft 310 kts 149°
2026-04-15 14:49 42.50248 12.31886 15313 ft 306 kts 149°
2026-04-15 14:49 42.49024 12.32852 15136 ft 306 kts 148°